This demonstration page uses our WeatherBlox Daily Observations layout. Learn more.

Left ArrowRight Arrow

Hourly Observations for November 6, 2020

Temp ( °F °C ) Dew Point ( °F °C ) Humidity (%) Winds ( mph kmh ) Pressure ( in mb ) Visibility ( mi km ) Precip ( " mm )
12:54 am 00:54 Hazy 37 2.8 30 -1.1 76 76 Calm 30.11 1020 6 9.65604 0 0
1:54 am 01:54 Clear 42 5.6 33 0.6 71 71 Calm 30.09 1019 8 12.87472 0 0
2:54 am 02:54 Clear 35 1.7 29 -1.7 78 78 N 3 6 30.09 1019 7 11.26538 0 0
3:54 am 03:54 Clear 35 1.7 29 -1.7 78 78 Calm 30.08 1019 8 12.87472 0 0
4:54 am 04:54 Clear 39 3.9 32 0 76 76 SSE 3 6 30.08 1019 9 14.48406 0 0
5:54 am 05:54 Clear 41 5 35 1.7 79 79 Calm 30.09 1019 10 16.0934 0 0
6:54 am 06:54 Clear 39 3.9 34 1.1 82 82 Calm 30.08 1019 10 16.0934 0 0
7:54 am 07:54 Sunny 40 4.4 36 2.2 86 86 S 5 7 30.08 1019 7 11.26538 0 0
8:54 am 08:54 Sunny 49 9.4 42 5.6 77 77 SSE 6 9 30.08 1019 9 14.48406 0 0
9:54 am 09:54 Sunny 61 16.1 45 7.2 56 56 S 8 13 30.05 1018 10 16.0934 0 0
10:54 am 10:54 Sunny 71 21.7 43 6.1 36 36 SSW 9 15 30.04 1017 10 16.0934 0 0
11:54 am 11:54 Sunny 72 22.2 44 6.7 37 37 SSW 15 24 30 1016 10 16.0934 0.001 0.001
12:54 pm 12:54 Sunny 75 23.9 43 6.1 32 32 SSW 16 26 29.98 1015 10 16.0934 0 0
1:54 pm 13:54 Sunny 78 25.6 43 6.1 29 29 S 21 33 29.95 1014 10 16.0934 0 0
2:54 pm 14:54 Sunny 78 25.6 45 7.2 31 31 S 18 30 29.93 1014 10 16.0934 0 0
3:54 pm 15:54 Sunny 76 24.4 47 8.3 36 36 S 20 31 29.93 1013 10 16.0934 0 0
4:54 pm 16:54 Sunny 72 22.2 49 9.4 44 44 S 16 26 29.93 1013 10 16.0934 0 0
5:54 pm 17:54 Clear 68 20 50 10 53 53 S 15 24 29.93 1014 10 16.0934 0 0
6:54 pm 18:54 Clear 66 18.9 52 11.1 61 61 S 18 30 29.94 1014 10 16.0934 0 0
7:54 pm 19:54 Clear 64 17.8 54 12.2 70 70 S 16 26 29.94 1014 10 16.0934 0 0
8:54 pm 20:54 Clear 63 17.2 53 11.7 70 70 S 16 26 29.94 1014 10 16.0934 0 0
9:54 pm 21:54 Clear 62 16.7 53 11.7 73 73 S 16 26 29.93 1014 10 16.0934 0 0
10:54 pm 22:54 Clear 61 16.1 53 11.7 75 75 S 17 28 29.92 1013 10 16.0934 0 0
11:54 pm 23:54 Clear 60 15.6 53 11.7 78 78 S 15 24 29.92 1013 10 16.0934 0 0

Powered by AerisWeather